Weather History for Fes-Sais, Morocco

Change the Weather History Date:

Thursday, February 7, 2013

  Actual Average Record
Temperature  
Mean Temperature 49 °F -  
Max Temperature 61 °F 62 °F 69 °F (2004)
Min Temperature 37 °F 39 °F 32 °F (2006)
Degree Days  
Heating Degree Days 16    
Moisture  
Dew Point 37 °F    
Average Humidity 68    
Maximum Humidity 93    
Minimum Humidity 38    
Precipitation  
Precipitation 0.00 in 0.13 in - ()
Sea Level Pressure  
Sea Level Pressure 30.25 in    
Wind  
Wind Speed 7 mph ()    
Max Wind Speed 12 mph    
Max Gust Speed -    
Visibility 6.1 miles    
Events      
Averages and records for this station are not official NWS values.
T = Trace of Precipitation, MM = Missing Value Source: Averaged Metar Reports

Daily Weather History Graph

Daily Weather History Graph

Search for Another Location

Airport:

Trip Planner

Search our weather history database for the weather conditions in past years. The results will help you decide how hot, cold, wet, or windy it might be!

Date:

Astronomy

Feb. 07, 2013 Rise Set
Actual Time 7:12 AM WET 5:56 PM WET
Civil Twilight 6:46 AM WET 6:22 PM WET
Nautical Twilight 6:16 AM WET 6:52 PM WET
Astronomical Twilight 5:47 AM WET 7:21 PM WET
Moon 4:34 AM WET (2/7) 3:09 PM WET (2/7)
Length of Visible Light 11h 36m
Length of Day
10h 44m
Waning Crescent, 10% of the Moon is Illuminated
Feb 7
Waning Crescent
Feb 10
New
Feb 17
First Quarter
Feb 25
Full
Mar 4
Last Quarter

Hourly Weather History & Observations

Time (WET) Temp. Windchill Dew Point Humidity Pressure Visibility Wind Dir Wind Speed Gust Speed Precip Events Conditions
12:00 AM 46 °F - 41 °F 77% 30.32 in 6 mi SW 11.5 mph - -   Mostly Cloudy
12:00 AM 48.2 °F - 41.0 °F 76% 30.27 in 6.2 mi WSW 10.4 mph - N/A   Mostly Cloudy
1:00 AM - - - N/A% 30.27 in 6.2 mi SSW 9.2 mph - N/A   Partly Cloudy
2:00 AM 46.4 °F 41.9 °F 39.2 °F 76% - 6.2 mi South 9.2 mph - N/A   Scattered Clouds
3:00 AM 47 °F - 38 °F 61% 30.29 in 6 mi South 6.9 mph - -   Mostly Cloudy
3:00 AM 46.4 °F 42.9 °F 37.4 °F 71% 30.27 in 6.2 mi South 6.9 mph - N/A   Mostly Cloudy
4:00 AM 44.6 °F 40.7 °F 41.0 °F 87% 30.24 in 6.2 mi WNW 6.9 mph - N/A   Mostly Cloudy
5:00 AM 44.6 °F 42.2 °F 41.0 °F 87% 30.24 in 6.2 mi West 4.6 mph - N/A   Mostly Cloudy
6:00 AM 39.2 °F 35.9 °F 37.4 °F 93% 30.24 in 6.2 mi SSE 4.6 mph - N/A   Mostly Cloudy
7:00 AM 37.4 °F 30.8 °F 35.6 °F 93% 30.27 in 6.2 mi SSE 9.2 mph - N/A   Scattered Clouds
8:00 AM 37.4 °F 32.1 °F 35.6 °F 93% 30.27 in 6.2 mi SSE 6.9 mph - N/A   Scattered Clouds
9:00 AM 47 °F - 40 °F 67% 30.32 in 6 mi South 6.9 mph - -   Partly Cloudy
9:00 AM 46.4 °F 42.9 °F 39.2 °F 76% 30.30 in 6.2 mi South 6.9 mph - N/A   Scattered Clouds
10:00 AM 51.8 °F - 39.2 °F 62% 30.30 in 6.2 mi NW 4.6 mph - N/A   Scattered Clouds
11:00 AM 53.6 °F - 41.0 °F 62% 30.30 in 6.2 mi WNW 6.9 mph - N/A   Scattered Clouds
12:00 PM 56 °F - 42 °F 48% 30.30 in 6 mi WNW 6.9 mph - -   Partly Cloudy
12:00 PM 55.4 °F - 42.8 °F 63% 30.27 in 6.2 mi WNW 6.9 mph - N/A   Scattered Clouds
1:00 PM 57.2 °F - 39.2 °F 51% 30.27 in 6.2 mi NW 9.2 mph - N/A   Scattered Clouds
2:00 PM 57.2 °F - 33.8 °F 41% 30.24 in 6.2 mi NW 8.1 mph - N/A   Scattered Clouds
3:00 PM 55.4 °F - 37.4 °F 51% 30.21 in 6.2 mi Variable 6.9 mph - N/A   Scattered Clouds
4:00 PM 57.2 °F - 32.0 °F 38% 30.21 in - Variable 2.3 mph - N/A   Clear
5:00 PM 55.4 °F - 32.0 °F 41% 30.21 in - Variable 3.5 mph - N/A   Clear
6:00 PM 51 °F - 39 °F 52% 30.23 in 6 mi NNE 3.5 mph - -  
6:00 PM 50.0 °F - 39.2 °F 66% 30.18 in - Variable 3.5 mph - N/A   Clear
7:00 PM 48.2 °F - 37.4 °F 66% 30.18 in - Variable 2.3 mph - N/A   Clear
8:00 PM 42.8 °F 39.3 °F 37.4 °F 81% 30.18 in - South 5.8 mph - N/A   Clear
9:00 PM 39 °F - 31 °F 64% 30.27 in 6 mi South 6.9 mph - -  
9:00 PM 39.2 °F 34.2 °F 32.0 °F 75% 30.18 in - South 6.9 mph - N/A   Clear
10:00 PM 37.4 °F 31.4 °F 30.2 °F 75% 30.18 in - South 8.1 mph - N/A   Clear
11:00 PM 37.4 °F 31.4 °F 30.2 °F 75% 30.18 in - South 8.1 mph - N/A   Clear